Torna al catalogo

OPS 4682 DEB

AttivoPO
NORAD 49110·DEBRIS·🇺🇸 United States

Lanciato Apr 3, 1965 da Vandenberg Space Force Base

Loading…

Prossimi Passaggi (prossime 24 ore)

TLE

In scadenzaSource: Space-Track

Epoca: Sep 5, 2026, 19:14 UTC

1 49110U 65027FT  26248.80142697  .00000799  00000-0  26542-2 0  9990
2 49110  90.2586  14.7636 0040034 175.5699 184.5785 12.99150472446807

Traccia OPS 4682 DEB in tempo reale con AllMySat

Download on the App Store